Clearfield, PA

3:30 PM EST on December 10, 2016 (GMT -0500)
Clearfield-Lawrence

Weather History for KFIG - October, 2012

Change the Weather History Date:

Friday, October 5, 2012

  Actual Average (KDUJ) Record (KDUJ)
Temperature  
Mean Temperature 60 °F -  
Max Temperature 75 °F 62 °F 83 °F (2007)
Min Temperature 48 °F 42 °F 28 °F (1965)
Degree Days  
Heating Degree Days 4    
Growing Degree Days 10 (Base 50)    
Moisture  
Dew Point 52 °F    
Average Humidity 79    
Maximum Humidity 100    
Minimum Humidity 49    
Precipitation  
Precipitation 0.01 in - - ()
Sea Level Pressure  
Sea Level Pressure 30.06 in    
Wind  
Wind Speed 4 mph (SSW)    
Max Wind Speed 14 mph    
Max Gust Speed 21 mph    
Visibility 8 miles    
Events      
Averages and records for this station are not official NWS values.
T = Trace of Precipitation, MM = Missing Value Source: NWS Daily Summary

Daily Weather History Graph

Daily Weather History Graph

Search for Another Location

Airport or City:

Trip Planner

Search our weather history database for the weather conditions in past years. The results will help you decide how hot, cold, wet, or windy it might be!

Date:

Astronomy

Oct. 05, 2012 Rise Set
Actual Time 7:14 AM EDT 6:48 PM EDT
Civil Twilight 6:47 AM EDT 7:15 PM EDT
Nautical Twilight 6:15 AM EDT 7:47 PM EDT
Astronomical Twilight 5:43 AM EDT 8:19 PM EDT
Moon 10:07 PM EDT (10/5) 12:23 PM EDT (10/5)
Length of Visible Light 12h 28m
Length of Day
11h 33m
Waning Gibbous, 74% of the Moon is Illuminated
Oct 5
Waning Gibbous
Oct 8
Last Quarter
Oct 15
New
Oct 21
First Quarter
Oct 29
Full

Hourly Weather History & Observations

Time (EDT) Temp. Dew Point Humidity Pressure Visibility Wind Dir Wind Speed Gust Speed Precip Events Conditions
12:54 AM 54.0 °F 51.1 °F 90% 30.13 in 10.0 mi SSW 4.6 mph - N/A   Clear
1:54 AM 52.0 °F 50.0 °F 93% 30.13 in 9.0 mi South 3.5 mph - N/A   Clear
2:54 AM 51.1 °F 50.0 °F 96% 30.13 in 4.0 mi Calm Calm - N/A   Clear
3:41 AM 48.2 °F 48.2 °F 100% 30.13 in 2.5 mi Calm Calm - N/A   Clear
3:49 AM 50.0 °F 48.2 °F 94% 30.13 in 3.0 mi Calm Calm - N/A   Clear
3:54 AM 50.0 °F 48.0 °F 93% 30.12 in 3.0 mi Calm Calm - N/A   Clear
4:19 AM 50.0 °F 48.2 °F 94% 30.13 in 2.5 mi Calm Calm - N/A   Clear
4:31 AM 50.0 °F 48.2 °F 94% 30.13 in 3.0 mi Calm Calm - N/A   Clear
4:54 AM 50.0 °F 48.0 °F 93% 30.13 in 3.0 mi SSW 3.5 mph - N/A   Clear
5:54 AM 50.0 °F 48.9 °F 96% 30.12 in 3.0 mi South 3.5 mph - N/A   Clear
6:54 AM 52.0 °F 50.0 °F 93% 30.12 in 7.0 mi SSW 4.6 mph - 0.01 in   Clear
7:54 AM 51.1 °F 50.0 °F 96% 30.13 in 3.0 mi South 5.8 mph - N/A   Clear
8:54 AM 55.0 °F 53.1 °F 93% 30.13 in 7.0 mi South 5.8 mph - N/A   Clear
9:54 AM 60.1 °F 54.0 °F 80% 30.12 in 10.0 mi SSW 10.4 mph - N/A   Clear
10:54 AM 66.0 °F 55.9 °F 70% 30.10 in 10.0 mi South 6.9 mph - N/A   Clear
11:54 AM 71.1 °F 55.9 °F 59% 30.07 in 10.0 mi SSW 10.4 mph - N/A   Partly Cloudy
12:54 PM 73.9 °F 54.0 °F 50% 30.05 in 10.0 mi WSW 12.7 mph 18.4 mph N/A   Mostly Cloudy
1:54 PM 73.0 °F 53.1 °F 49% 30.04 in 10.0 mi West 12.7 mph 20.7 mph N/A   Mostly Cloudy
2:54 PM 73.0 °F 54.0 °F 51% 30.02 in 10.0 mi West 9.2 mph - N/A   Mostly Cloudy
3:54 PM 72.0 °F 54.0 °F 53% 30.01 in 10.0 mi WSW 8.1 mph - N/A   Overcast
4:54 PM 71.1 °F 53.1 °F 53% 30.00 in 10.0 mi SSW 13.8 mph 19.6 mph N/A   Overcast
5:54 PM 70.0 °F 54.0 °F 57% 29.99 in 10.0 mi SW 8.1 mph - N/A   Partly Cloudy
6:54 PM 66.0 °F 55.0 °F 68% 29.98 in 10.0 mi South 3.5 mph - N/A   Clear
7:54 PM 64.0 °F 55.0 °F 73% 29.98 in 10.0 mi SW 3.5 mph - N/A   Clear
8:54 PM 62.1 °F 55.0 °F 78% 29.97 in 10.0 mi SSW 3.5 mph - N/A   Clear
9:54 PM 60.1 °F 55.0 °F 83% 29.95 in 10.0 mi Calm Calm - N/A   Clear
10:54 PM 60.1 °F 54.0 °F 80% 29.93 in 10.0 mi SW 4.6 mph - N/A   Overcast
11:54 PM 60.1 °F 54.0 °F 80% 29.91 in 10.0 mi Calm Calm - N/A   Mostly Cloudy